Ephrata, WA
on Sunday, December 30, 2012

Sunday
Previous Day Next Day
Daily Summary
 ActualAverageRecord
Temperature
Mean Temperature °F 26°F  
Max Temperature 27°F 32°F 50°F (2011)
Min Temperature 10°F 20°F -16°F (1968)
Degree Days
Heating Degree Days 46 39  
Month to date heating degree days 956 1130  
Since 1 July heating degree days 2216 2549  
Cooling Degree Days 0 0  
Month to date cooling degree days 0 0  
Year to date cooling degree days 837 772  
Moisture
Dew Point 18°F   
Average Humidity 88    
Maximum Humidity 100    
Minimum Humidity 75    
Precipitation
Precipitation 0.00 in 0.03 in 0.50 in (2002)
Month to date precipitation 1.69 1.20  
Year to date precipitation 8.64 7.81  
Wind
Wind Speed 4 mph   
Max Wind Speed 10 mph   
Max Gust Speed 13 mph   
Visibility 4 miles   
Events Fog   

Key: T is trace of precipitation, MM is missing value
Source: NWS Daily Summary
Time(PST)TemperatureDew PointHumidity Pressure Visibility Wind DirectionWind SpeedGust SpeedPrecipitationEvents Conditions
12:53 AM 26.1°F 19.9°F 78% 30.27 in 10.0 miles WNW 6.9 mph - N/A   Overcast
1:53 AM 26.1°F 21.0°F 81% 30.28 in 10.0 miles NW 4.6 mph - N/A   Overcast
2:53 AM 25.0°F 19.9°F 81% 30.30 in 10.0 miles Calm Calm - N/A   Overcast
3:53 AM 21.9°F 17.1°F 82% 30.30 in 10.0 miles Calm Calm - N/A   Clear
4:53 AM 15.1°F 12.9°F 91% 30.31 in 10.0 miles Calm Calm - N/A   Clear
5:53 AM 14.0°F 10.0°F 84% 30.32 in 10.0 miles NNW 5.8 mph - N/A   Clear
6:29 AM 15.8°F 12.2°F 86% 30.27 in 1.5 miles NNE 4.6 mph - N/A   Clear
6:38 AM 15.8°F 14.0°F 93% 30.27 in 2.5 miles North 3.5 mph - N/A   Partly Cloudy
6:45 AM 14.0°F 12.2°F 93% 30.27 in 10.0 miles North 3.5 mph - N/A   Mostly Cloudy
6:53 AM 14.0°F 12.0°F 92% 30.33 in 1.2 miles North 4.6 mph - N/A   Mostly Cloudy
7:01 AM 12.2°F 12.2°F 100% 30.27 in 0.5 miles North 3.5 mph - N/A Fog Light Freezing Fog
7:49 AM 10.4°F 10.4°F 100% 30.26 in 1.2 miles North 3.5 mph - N/A   Partly Cloudy
7:51 AM 12.2°F 10.4°F 92% 30.26 in 3.0 miles North 3.5 mph - N/A   Scattered Clouds
7:53 AM 12.0°F 10.0°F 92% 30.33 in 2.0 miles Calm Calm - N/A   Scattered Clouds
8:00 AM 10.4°F 8.6°F 92% 30.27 in 1.0 miles Calm Calm - N/A   Mist
8:07 AM 10.4°F 8.6°F 92% 30.27 in 0.5 miles Calm Calm - N/A Fog Light Freezing Fog
8:21 AM 12.2°F 10.4°F 92% 30.28 in 0.2 miles North 4.6 mph - N/A Fog Light Freezing Fog
8:48 AM 15.8°F 12.2°F 86% 30.29 in 0.5 miles NNE 4.6 mph - N/A Fog Light Freezing Fog
8:53 AM 18.0°F 15.1°F 88% 30.35 in 0.8 miles NNE 5.8 mph - N/A   Mist
8:56 AM 17.6°F 15.8°F 93% 30.29 in 2.0 miles NNE 5.8 mph - N/A   Scattered Clouds
9:03 AM 19.4°F 15.8°F 86% 30.30 in 10.0 miles NNE 4.6 mph - N/A   Partly Cloudy
9:53 AM 18.0°F 16.0°F 92% 30.37 in 10.0 miles SE 3.5 mph - N/A   Clear
10:53 AM 21.9°F 18.0°F 85% 30.37 in 10.0 miles Calm Calm - N/A   Clear
11:31 AM 19.4°F 19.4°F 100% 30.30 in 1.0 miles Calm Calm - N/A   Mist
11:38 AM 19.4°F 19.4°F 100% 30.30 in 0.5 miles Calm Calm - N/A Fog Light Freezing Fog
11:53 AM 21.0°F 19.9°F 96% 30.36 in 0.2 miles Calm Calm - N/A Fog Light Freezing Fog
12:09 PM 21.2°F 19.4°F 93% 30.29 in 0.5 miles ENE 3.5 mph - N/A Fog Light Freezing Fog
12:24 PM 21.2°F 19.4°F 93% 30.30 in 0.2 miles ENE 3.5 mph - N/A Fog Light Freezing Fog
12:41 PM 23.0°F 19.4°F 86% 30.30 in 0.2 miles ENE 6.9 mph - N/A Fog Light Freezing Fog
12:53 PM 21.9°F 21.0°F 96% 30.36 in 0.5 miles ENE 5.8 mph - N/A Fog Light Freezing Fog
1:05 PM 21.2°F 21.2°F 100% 30.30 in 0.2 miles East 3.5 mph - N/A Fog Light Freezing Fog
1:53 PM 23.0°F 21.0°F 92% 30.35 in 0.2 miles East 3.5 mph - N/A Fog Light Freezing Fog
2:21 PM 23.0°F 21.2°F 93% 30.30 in 0.5 miles Calm Calm - N/A Fog Light Freezing Fog
2:53 PM 23.0°F 21.0°F 92% 30.37 in 1.2 miles Calm Calm - N/A   Overcast
3:02 PM 23.0°F 21.2°F 93% 30.31 in 2.5 miles Calm Calm - N/A   Overcast
3:14 PM 23.0°F 19.4°F 86% 30.31 in 7.0 miles NNE 3.5 mph - N/A   Overcast
3:53 PM 21.9°F 21.0°F 96% 30.37 in 9.0 miles North 3.5 mph - N/A   Overcast
4:53 PM 23.0°F 21.0°F 92% 30.38 in 10.0 miles North 5.8 mph - N/A   Overcast
5:11 PM 23.0°F 21.2°F 93% 30.31 in 1.8 miles North 5.8 mph - N/A   Overcast
5:53 PM 23.0°F 21.9°F 96% 30.38 in 1.2 miles NNW 3.5 mph - N/A   Overcast
6:01 PM 23.0°F 21.2°F 93% 30.32 in 3.0 miles NW 4.6 mph - N/A   Overcast
6:16 PM 23.0°F 21.2°F 93% 30.32 in 2.5 miles NW 4.6 mph - N/A   Overcast
6:30 PM 23.0°F 21.2°F 93% 30.32 in 1.2 miles NW 5.8 mph - N/A   Overcast
6:53 PM 23.0°F 21.0°F 92% 30.39 in 1.0 miles NNW 5.8 mph - N/A   Overcast
7:53 PM 24.1°F 21.9°F 91% 30.38 in 1.2 miles North 8.1 mph - N/A   Overcast
8:29 PM 24.8°F 21.2°F 86% 30.31 in 2.5 miles North 8.1 mph - N/A   Overcast
8:53 PM 24.1°F 23.0°F 96% 30.38 in 3.0 miles North 6.9 mph - N/A   Overcast
9:53 PM 25.0°F 23.0°F 92% 30.38 in 8.0 miles NNE 4.6 mph - N/A   Overcast
10:10 PM 24.8°F 21.2°F 86% 30.32 in 10.0 miles NNE 5.8 mph - N/A   Overcast
10:53 PM 24.1°F 21.0°F 88% 30.38 in 10.0 miles NNE 5.8 mph - N/A   Overcast
11:53 PM 24.1°F 21.9°F 91% 30.38 in 10.0 miles NNW 4.6 mph - N/A   Overcast
Moon Phase
Dec. 30 Jan. 04 Jan. 11 Jan. 18 Jan. 26
Sunrise:07:45 AM (PST) Moon Rise:07:04 PM (PST)
Sunset:04:16 PM (PST) Moon Set:08:46 AM (PST)

Copyright © 2014 The Weather Underground, Inc.